This is the latest recevied weather packets stored in our database for station/object N8RJH-13. If no packets are shown the sender has not sent any weather packets the latest 10 day(s).
| Time | Temp. | Humidity | Pressure | Rain* | Wind** | Luminosity | Snow |
|---|---|---|---|---|---|---|---|
| 1787869507 | 28.33° C | 77% | 1016.6 hPa | - | - | - | - |
| 1787868886 | 28.33° C | 77% | 1016.5 hPa | - | - | - | - |
| 1787868266 | 28.33° C | 77% | 1016.2 hPa | - | - | - | - |
| 1787867636 | 28.89° C | 76% | 1016.2 hPa | - | - | - | - |
| 1787867016 | 28.89° C | 77% | 1016.3 hPa | - | - | - | - |
| 1787866386 | 29.44° C | 75% | 1016.4 hPa | - | - | - | - |
| 1787865746 | 29.44° C | 75% | 1016.4 hPa | - | - | - | - |
| 1787865116 | 29.44° C | 75% | 1016.5 hPa | - | - | - | - |
| 1787864506 | 29.44° C | 74% | 1016.5 hPa | - | - | - | - |
| 1787863885 | 30° C | 74% | 1016.5 hPa | - | - | - | - |
| 1787863257 | 29.44° C | 75% | 1016.6 hPa | - | - | - | - |
| 1787862627 | 30° C | 74% | 1016.7 hPa | - | - | - | - |
| 1787862007 | 30° C | 75% | 1016.7 hPa | - | - | - | - |
| 1787861397 | 30° C | 76% | 1016.7 hPa | - | - | - | - |
| 1787860776 | 29.44° C | 75% | 1016.8 hPa | - | - | - | - |
| 1787860166 | 29.44° C | 73% | 1017 hPa | - | - | - | - |
| 1787859546 | 28.89° C | 76% | 1016.8 hPa | - | - | - | - |
| 1787858937 | 28.33° C | 79% | 1017 hPa | - | - | - | - |
| 1787858306 | 27.78° C | 79% | 1017.2 hPa | - | - | - | - |
| 1787857680 | 27.78° C | 80% | 1017.1 hPa | - | - | - | - |
| 1787857047 | 28.33° C | 81% | 1017.2 hPa | - | - | - | - |
| 1787856427 | 28.33° C | 80% | 1017.4 hPa | - | - | - | - |
| 1787855811 | 28.33° C | 79% | 1017.5 hPa | - | - | - | - |
| 1787855186 | 28.33° C | 81% | 1017.7 hPa | - | - | - | - |
| 1787854566 | 28.89° C | 81% | 1017.8 hPa | - | - | - | - |
* Rain since midnight (hover to see other rain measurements)
** Current wind speed in m/s (hover to see current wind gust speed)